Location: Aubertin
(43.2667°N, 0.4833°W)
Time: 06:44:16
(UTC+00:00)

Daily predictions for brighter satellites

Satellite Brightness Start Highest point End
(mag) Time Altitude Azimuth Time Altitude Azimuth Time Altitude Azimuth
In-Cosmos 22 4.1 18:04:21 10° N 18:09:40 89° W 18:14:58 10° S
USA 215 4.0 18:04:15 10° NE 18:10:33 52° NNW 18:16:50 10° WSW
Tsikada Rocket 4.4 18:04:13 10° SSW 18:10:38 78° W 18:17:04 10° N
SL-4 R/B 3.6 18:09:24 10° NW 18:13:14 28° N 18:17:15 10° ENE
SL-08 RB Rocket 4.5 18:10:09 10° S 18:14:39 59° W 18:19:14 10° NNW
ARGOS Delta rocket 4.3 18:11:57 10° NNE 18:17:03 45° E 18:21:51 10° SSE
SKYMED 3 4.4 18:15:10 10° NNE 18:19:18 79° ESE 18:23:24 10° S
BREEZE-M DEB (TANK) 3.7 18:15:47 10° SW 18:19:40 69° SE 18:34:02 10° ENE
Okean O Rocket 2.3 18:17:08 10° SE 18:21:00 32° ENE 18:24:54 10° N
Cosmos 2219 3.4 18:20:03 10° NNW 18:25:50 82° WSW 18:31:35 10° SSE
CZ-2C R/B 3.0 18:24:02 10° SW 18:26:03 16° S 18:28:06 10° SSE
Cosmos 1242 Rocket 2.5 18:22:47 10° S 18:26:17 57° E 18:29:48 10° NNE
BREEZE M DEB (TANK) 4.2 18:20:41 10° SSW 18:28:25 27° SSE 18:31:25 12° E
Spot 1 3.9 18:26:10 10° NNE 18:30:26 75° ESE 18:34:31 10° S
SL-14 R/B 3.8 18:28:17 10° N 18:32:00 38° ENE 18:35:44 10° SSE
Cosmos 1805 3.3 18:29:18 10° S 18:33:06 56° E 18:36:54 10° NNE
Cosmos 2263 Rocket 2.8 18:27:49 10° NNW 18:33:08 38° ENE 18:38:24 10° SE
YAOGAN 1 2.7 18:30:33 10° SSE 18:34:45 54° ENE 18:38:59 10° N
Cosmos 1674 Rocket 4.1 18:32:22 10° N 18:36:30 38° ENE 18:40:38 10° SE
Cosmos 1726 2.6 18:33:29 10° SSE 18:36:48 35° E 18:40:10 10° NNE
COBE Rocket 3.8 18:32:08 10° SSE 18:37:00 66° ENE 18:41:45 10° N
OBJECT-B 2.5 18:38:57 12° NE 18:38:57 12° NE 18:39:29 10° NE
Cosmos 2082 3.7 18:38:58 10° NNW 18:44:44 79° ENE 18:50:28 10° SSE
Cosmos 1674 3.9 18:41:29 10° NNW 18:45:04 44° W 18:48:36 10° SSW
USA 267 3.7 18:38:50 10° SE 18:45:19 64° SW 18:51:51 10° NW
Cosmos 1766 3.7 18:43:27 10° SSE 18:47:04 38° E 18:50:43 10° NNE
Cosmos 1697 Rocket 3.7 18:45:29 10° SW 18:50:53 48° WNW 18:56:21 10° NNE
Cosmos 2279 Rocket 4.2 18:51:51 10° N 18:58:06 76° W 19:04:20 10° S
Cosmos 2221 Rocket 3.6 18:54:29 10° N 18:59:02 88° W 19:03:35 10° S
IGS 5A 4.4 18:59:49 24° E 19:00:53 28° ENE 19:04:24 10° N
ASTEX 1 4.2 18:56:59 10° N 19:01:50 55° W 19:06:41 10° SSW
Resurs 01 Rocket 3.7 19:05:25 12° NE 19:05:25 12° NE 19:06:27 10° NE
Cosmos 1378 Rocket 3.4 19:01:21 10° N 19:05:46 79° E 19:10:05 10° S
Cosmos 1733 4.3 19:03:37 10° SSW 19:07:15 46° WNW 19:10:53 10° N
Cosmos 968 Rocket 4.0 19:03:17 10° SSE 19:08:05 37° ESE 19:12:52 10° NE
Cosmos 1470 4.4 19:15:56 19° NE 19:15:56 19° NE 19:17:22 10° NNE
Cosmos 1733 Rocket 4.2 19:10:11 10° SSW 19:14:26 46° WNW 19:18:45 10° N
Cosmos 540 Rocket 4.4 19:10:09 10° NNW 19:15:03 48° WSW 19:19:55 10° S
Meteor 2-14 Rocket 4.5 19:10:08 10° S 19:16:12 83° W 19:22:18 10° N
Cosmos 2227 Rocket 4.4 19:12:52 10° NW 19:17:25 25° WSW 19:21:57 10° SSW
USA 229 DEB 4.5 19:13:12 10° NW 19:20:32 60° WSW 19:28:18 10° SSE
USA 229 4.4 19:13:18 10° NW 19:20:39 61° WSW 19:28:24 10° SSE
CZ-4B R/B 4.1 19:16:29 10° S 19:21:38 49° W 19:26:55 10° NNW
Cosmos 2322 Rocket 3.6 19:17:37 10° SSE 19:27:51 - NE 19:19:41 20° SE
ISS -3.7 19:19:09 10° NW 19:22:29 59° NNE 19:22:45 56° NE
CSL-04 Rocket 3.7 19:21:40 26° SE 19:24:31 55° ENE 19:29:46 10° N
Okean-O 2.8 19:24:10 41° ESE 19:25:06 48° ENE 19:29:22 10° N
Cosmos 841 Rocket 3.9 19:21:15 10° NNW 19:26:21 61° WSW 19:31:24 10° S
Resurs 1-3 4.1 19:26:17 39° ENE 19:26:23 39° ENE 19:30:28 10° N
CZ-4 R/B 2.1 19:22:19 10° S 19:26:24 56° W 19:30:32 10° NNW
Feng Yun 1-1 Rocket 4.4 19:21:33 10° S 19:27:04 74° WSW 19:32:31 10° NNW
Gbstr 26 Del rocket 4.5 19:20:07 10° WSW 19:27:44 85° NNW 19:34:42 15° ENE
SJ-6B 2.6 19:30:24 61° E 19:30:31 62° ENE 19:34:13 10° N
Cosmos 1980 Rocket 3.3 19:25:45 10° SW 19:31:08 46° WNW 19:36:34 10° NNE
Meteor 1-12 Rocket 4.3 19:27:12 10° S 19:33:11 87° W 19:39:15 10° N
Meteor 2-21 Rocket 4.4 19:27:22 10° S 19:33:26 87° W 19:39:32 10° N
Cosmos 1570 Rocket 4.1 19:28:26 10° NNW 19:33:37 54° ENE 19:34:49 44° ESE
Cosmos 1627 Rocket 4.4 19:30:28 10° SSE 19:36:24 56° E 19:42:22 10° NNE
OAO 2 Rocket 4.3 19:34:52 10° SW 19:39:06 29° S 19:39:12 29° S
USA 186 2.1 19:40:04 62° NNW 19:40:04 62° NNW 19:42:55 10° NNW
Cosmos 1428 Rocket 4.3 19:37:40 10° S 19:43:46 72° E 19:50:00 10° NNE
Cosmos 2195 Rocket 4.3 19:37:45 10° S 19:43:56 76° E 19:50:13 10° N
Cosmos 2278 4.1 19:40:47 10° SW 19:46:24 62° WNW 19:52:04 10° NNE
Cosmos 1437 Rocket 2.8 19:44:14 10° SSW 19:47:59 70° W 19:51:44 10° N
SL-16 R/B 2.0 19:44:00 10° SSW 19:49:37 69° ESE 19:55:16 10° NNE
Meteor 1-24 Rocket 3.4 19:45:08 10° N 19:50:26 71° E 19:51:24 57° SE
SL-4 R/B 2.5 19:48:55 10° NW 19:53:24 57° NNE 19:53:27 57° NNE
Cosmos 2208 Rocket 3.9 19:51:39 10° NNW 19:57:01 69° ENE 19:57:21 67° E
Okean O Rocket 3.8 19:53:51 10° SSW 19:57:22 24° W 20:00:55 10° NW
Meteor 1-22 Rocket 4.1 19:53:51 10° S 19:59:12 85° W 20:04:47 10° N
Cosmos 1844 Rocket 3.3 19:54:24 10° NNW 19:59:17 39° NE 19:59:17 39° NE
Cosmos 2026 Rocket 3.8 19:55:22 10° S 20:01:25 86° E 20:07:30 10° N
Cosmos 2285 Rocket 4.2 19:56:23 10° NNW 20:02:42 71° WSW 20:05:47 32° S
USA 81 3.9 19:58:00 10° N 20:03:18 83° E 20:03:45 74° SSE
Landsat 5 4.5 19:59:07 10° N 20:03:29 50° WNW 20:07:47 10° SSW
Cosmos 1782 Rocket 3.9 20:06:55 61° NNW 20:06:55 61° NNW 20:10:41 10° N
OBJECT-B 3.8 20:09:47 12° NW 20:09:47 12° NW 20:10:04 10° NW
Cosmos 1553 Rocket 4.1 20:03:47 10° N 20:09:44 56° ENE 20:09:44 56° ENE
H-2A R/B 4.2 20:15:56 24° N 20:15:56 24° N 20:17:32 10° N
USA 281 4.5 20:16:22 24° NE 20:16:22 24° NE 20:20:58 10° N
Cosmos 2263 Rocket 3.6 20:11:54 10° NW 20:16:58 34° WSW 20:20:24 18° SSW
Cosmos 1844 4.4 20:16:00 10° NNW 20:20:06 41° NNE 20:20:06 41° NNE
Meteor 2-5 Rocket 4.3 20:16:40 10° NNW 20:22:02 54° W 20:23:46 39° SSW
Cosmos 1025 Rocket 4.5 20:25:36 10° NNW 20:28:10 34° NNW 20:28:10 34° NNW
SPOT 1/Viking Rocket 4.3 20:32:06 46° N 20:32:06 46° N 20:35:40 10° NNW
Resurs 01 Rocket 3.5 20:42:59 25° NNW 20:42:59 25° NNW 20:44:54 10° NNW
Cosmos 2322 Rocket 4.1 21:00:52 10° SW 21:09:30 23° N 21:11:43 10° NNE
SL-16 R/B 4.4 21:30:02 10° W 21:34:17 21° NW 21:38:32 10° N
